EDT,Max TemperatureF,Mean TemperatureF,Min TemperatureF,Max Dew PointF,MeanDew PointF,Min DewpointF,Max Humidity, Mean Humidity, Min Humidity, Max Sea Level PressureIn, Mean Sea Level PressureIn, Min Sea Level PressureIn, Max VisibilityMiles, Mean VisibilityMiles, Min VisibilityMiles, Max Wind SpeedMPH, Mean Wind SpeedMPH, Max Gust SpeedMPH,PrecipitationIn, CloudCover, Events, WindDirDegrees
2013-6-1,90,78,65,66,64,62,87,66,44,29.94,29.86,29.76,10,10,9,24,8,36,T,6,Thunderstorm,203
2013-6-2,84,72,60,66,62,52,84,65,46,29.83,29.73,29.68,10,10,9,29,11,36,0.04,5,Rain-Thunderstorm,231
2013-6-3,65,57,49,52,44,37,77,62,47,29.99,29.93,29.86,10,10,10,18,10,23,0.00,5,,294
2013-6-4,67,57,47,43,40,34,77,54,31,30.15,30.08,29.99,10,10,10,18,9,25,0.00,2,,293
2013-6-5,73,61,49,47,43,40,77,56,34,30.21,30.15,30.09,10,10,10,8,4,,0.00,7,,47
2013-6-6,63,59,55,58,52,44,97,74,50,30.10,30.02,29.88,10,5,2,14,8,,2.39,8,Rain,100
2013-6-7,62,58,55,61,57,54,97,92,87,29.88,29.84,29.80,10,8,2,14,10,,0.04,8,Rain,90
2013-6-8,65,61,56,61,58,56,97,88,75,30.07,29.92,29.79,10,8,2,9,4,17,0.06,8,Rain,301
2013-6-9,80,69,57,57,54,52,90,65,39,30.19,30.15,30.08,10,10,10,10,4,,0.00,6,,319
2013-6-10,68,62,56,64,59,54,93,81,68,30.15,29.97,29.58,10,9,4,17,9,22,0.53,8,Rain,95
2013-6-11,68,63,58,64,60,54,100,92,84,29.78,29.68,29.61,10,8,2,21,9,26,0.17,8,Rain,290
2013-6-12,74,65,55,55,53,52,93,70,46,29.91,29.85,29.78,10,10,10,15,5,18,0.00,5,,302
2013-6-13,61,59,56,61,57,54,100,89,78,29.78,29.65,29.57,10,7,2,22,10,28,1.23,8,Rain,70
2013-6-14,73,63,53,58,55,52,100,81,61,29.93,29.83,29.74,10,8,0,20,8,25,0.00,6,Fog,287
2013-6-15,76,64,51,53,50,46,96,67,38,30.01,29.97,29.94,10,10,9,18,6,22,0.00,3,Fog,281
2013-6-16,73,66,58,64,58,50,93,73,53,29.94,29.79,29.70,10,8,2,18,7,22,0.18,7,Rain,227
2013-6-17,80,71,61,65,60,56,87,69,50,29.91,29.84,29.80,10,10,7,26,9,33,0.03,5,Rain-Thunderstorm,268
2013-6-18,72,63,54,58,53,48,93,70,47,30.00,29.94,29.89,10,10,10,14,5,18,0.02,6,Rain,4
2013-6-19,69,58,47,49,43,39,89,62,35,30.20,30.11,30.01,10,10,10,16,5,21,0.00,1,,308
2013-6-20,79,63,46,52,47,42,86,62,37,30.26,30.22,30.19,10,10,10,14,3,18,0.00,3,,359
2013-6-21,83,68,52,56,51,44,89,60,30,30.27,30.22,30.16,10,10,10,10,3,14,0.00,3,,84
2013-6-22,87,75,62,65,62,55,78,61,44,30.17,30.09,30.00,10,10,10,16,8,23,0.00,6,,190
2013-6-23,91,81,71,71,68,65,84,68,52,30.06,30.02,29.97,10,10,7,17,7,25,0.02,5,Rain-Thunderstorm,208
2013-6-24,91,80,68,71,67,59,90,73,55,30.02,29.97,29.92,10,10,7,10,7,14,0.00,6,Thunderstorm,221
2013-6-25,84,76,67,72,67,62,93,76,58,29.93,29.84,29.77,10,9,2,21,6,26,0.22,6,Rain,235
2013-6-26,85,77,68,70,67,65,93,72,51,29.82,29.79,29.76,10,8,2,16,7,20,0.37,7,Rain,247
2013-6-27,84,75,65,71,66,62,93,76,58,29.79,29.72,29.60,10,9,5,20,4,28,0.49,7,Rain,76
2013-6-28,77,70,63,66,64,59,100,87,73,29.57,29.51,29.47,10,8,2,14,6,17,0.70,7,Rain,312
2013-6-29,78,71,63,65,62,60,93,77,60,29.68,29.54,29.49,10,10,6,17,4,21,0.13,7,Rain,251
2013-6-30,83,74,64,66,63,60,93,76,58,29.90,29.79,29.69,10,10,10,14,5,17,T,6,Rain,332